Temp
18 19 19 19 19 19 19 19 20 20 20 20 20 20 19 19 19 19 19 19 19 19 19 18 18 18 18 17 17 17 16 16 16 16 16 16 17 17 16 16 16 16 16
20 19 19 20 20 19 19 19 20 20 20 20 19 20 19 19 19 19 19 19 19 19 19 19 18 18 18 17 17 17 17 16 16 16 15 16 17 16 16 16 16 15 16
21 20 20 20 20 20 19 20 20 20 20 20 20 19 19 19 19 19 19 19 19 19 19 18 18 18 18 18 18 17 17 17 17 16 16 16 16 16 16 16 16 15 15
20 20 20 20 20 20 20 20 20 20 20 20 20 19 19 19 19 19 19 19 19 18 18 18 18 18 18 18 18 17 17 18 17 16 16 16 16 16 16 16 16 15 15
20 20 20 20 20 20 20 20 20 20 20 20 20 19 19 19 19 19 19 19 19 18 18 18 18 18 19 19 18 18 18 18 17 17 17 17 16 16 16 16 15 15 15
20 20 20 20 20 20 20 20 20 20 19 20 19 19 19 19 19 19 19 19 19 18 18 18 18 19 19 18 18 18 18 18 17 17 17 17 17 17 16 16 16 16 15
20 20 20 20 20 20 20 20 20 19 19 19 19 19 19 19 19 19 19 19 19 18 18 19 19 19 18 19 18 18 18 18 18 18 17 17 17 17 16 16 16 16 16
21 21 21 20 20 20 20 20 20 19 19 19 19 19 19 20 20 19 19 19 19 19 18 19 19 18 18 18 18 18 18 18 18 18 17 16 17 17 17 16 16 16 15
21 21 21 20 20 20 20 20 20 19 19 19 19 18 19 19 20 19 19 19 19 19 19 19 19 18 18 18 18 18 18 18 17 17 16 16 17 16 17 16 16 16 16
21 21 20 20 20 20 20 20 19 19 19 19 19 19 19 19 20 20 19 19 19 19 19 19 19 19 19 18 18 18 18 18 17 17 16 17 17 17 16 16 16 16 16
20 20 20 20 20 20 20 20 19 19 19 19 19 19 19 19 20 20 20 19 20 19 19 19 19 19 19 18 18 18 18 16 16 16 17 17 17 17 17 17 17 17 17
21 21 20 20 20 20 20 20 19 19 19 19 19 19 20 20 20 20 20 19 19 19 19 19 19 19 19 18 18 18 16 16 16 16 17 17 17 17 17 17 17 17 17
21 21 21 21 21 21 20 20 19 19 19 19 19 19 20 20 20 20 20 20 20 19 19 19 19 19 19 19 18 17 16 16 16 16 17 17 17 17 17 17 17 17 16
21 21 21 21 21 21 20 20 19 19 19 19 19 19 20 20 20 20 20 20 20 19 19 19 19 19 18 19 18 16 16 16 16 16 16 17 17 17 17 17 16 16 16
21 21 21 21 21 21 21 20 19 19 19 19 19 19 20 20 20 20 20 20 20 19 19 19 19 19 18 18 17 16 15 15 15 15 15 16 16 16 16 16 16 16 16
21 21 20 20 21 21 21 20 19 19 19 19 19 19 19 19 19 20 20 20 20 19 19 18 18 18 18 17 17 17 15 16 17 15 14 14 15 16 16 15 15 15 15
21 20 21 20 20 20 20 20 20 19 19 19 19 19 19 19 19 19 20 19 20 19 19 18 18 18 18 17 17 17 17 17 17 16 14 14 14 15 14 13 13 13 13
21 21 21 20 20 20 20 20 20 19 19 19 19 19 19 19 19 19 19 19 20 19 19 18 18 18 18 17 17 17 16 16 16 16 16 15 13 13 13 12 12 12 12
21 21 21 20 20 20 20 20 20 19 19 19 19 19 19 19 19 19 19 19 20 19 19 18 18 18 18 17 17 16 16 16 16 16 17 17 16 14 12 12 12 12 12
21 21 21 20 20 20 19 20 20 20 19 19 19 19 19 19 19 19 19 19 19 19 19 19 18 18 17 17 17 16 16 16 16 16 16 16 17 15 13 13 12 12 11
21 21 21 21 21 20 20 20 19 19 19 19 19 19 19 19 19 19 19 19 19 19 19 19 18 18 18 17 17 16 16 15 16 16 16 16 16 16 15 13 13 12 11
22 22 21 21 21 20 20 20 20 19 19 19 19 19 19 19 19 19 18 18 18 19 19 19 19 18 18 18 17 16 15 14 15 16 16 15 16 16 16 15 14 14 11
21 21 22 22 21 21 20 20 20 19 19 19 19 19 19 19 19 18 18 18 18 18 18 19 19 19 18 18 17 17 17 16 15 15 15 15 15 16 16 15 14 14 14
20 22 22 21 22 22 21 20 20 20 20 20 19 19 19 19 18 18 18 18 18 18 18 18 19 19 18 17 17 17 17 17 16 15 15 15 15 15 16 15 15 14 15
23 24 25 23 22 22 21 21 20 20 20 19 19 19 19 19 19 18 18 18 18 18 18 18 18 18 18 18 17 17 17 17 17 17 16 14 15 15 15 16 15 14 14
24 24 26 24 23 23 22 21 21 21 20 20 19 19 19 19 18 18 18 18 18 18 18 18 18 18 18 18 18 18 18 17 16 17 17 15 14 15 15 15 15 15 14
Height
1556 1558 1560 1562 1563 1564 1565 1566 1566 1566 1565 1565 1564 1562 1561 1560 1560 1559 1558 1558 1557 1556 1555 1554 1553 1551 1549 1548 1547 1547 1546 1545 1545 1545 1548 1549 1549 1547 1548 1549 1548 1550 1552
1556 1558 1561 1563 1564 1565 1566 1567 1568 1568 1567 1566 1565 1564 1563 1562 1562 1561 1561 1560 1559 1558 1556 1555 1553 1552 1550 1549 1547 1546 1545 1544 1544 1544 1546 1547 1548 1548 1548 1551 1551 1551 1551
1557 1559 1562 1564 1566 1567 1568 1569 1570 1570 1569 1568 1567 1566 1565 1565 1564 1564 1562 1561 1560 1558 1557 1556 1554 1553 1550 1549 1548 1547 1546 1545 1544 1544 1547 1548 1549 1548 1549 1550 1550 1548 1550
1559 1561 1564 1566 1567 1568 1569 1570 1571 1571 1571 1570 1569 1569 1569 1568 1566 1565 1564 1563 1560 1560 1558 1556 1554 1553 1551 1549 1549 1548 1547 1546 1545 1546 1548 1550 1550 1550 1549 1549 1549 1550 1551
1561 1563 1566 1568 1569 1569 1570 1571 1572 1573 1573 1571 1570 1571 1571 1570 1569 1568 1567 1564 1562 1560 1558 1556 1555 1554 1552 1551 1550 1549 1549 1548 1547 1547 1549 1551 1551 1550 1550 1551 1551 1551 1551
1563 1565 1567 1569 1570 1571 1572 1573 1573 1573 1573 1573 1573 1573 1572 1571 1571 1570 1568 1565 1563 1561 1560 1558 1556 1555 1554 1552 1552 1551 1552 1551 1551 1550 1551 1552 1552 1552 1552 1552 1553 1553 1553
1565 1567 1569 1570 1572 1573 1573 1573 1574 1574 1574 1574 1575 1575 1574 1573 1573 1571 1569 1567 1564 1563 1561 1559 1558 1557 1556 1555 1555 1554 1555 1554 1554 1553 1554 1554 1554 1554 1554 1554 1555 1555 1555
1566 1568 1570 1572 1573 1574 1574 1574 1575 1575 1576 1576 1576 1577 1576 1575 1575 1573 1571 1568 1566 1565 1564 1562 1561 1560 1558 1558 1557 1557 1557 1557 1557 1556 1556 1557 1556 1556 1557 1556 1557 1557 1557
1568 1569 1571 1572 1574 1575 1575 1575 1576 1577 1578 1578 1579 1578 1577 1577 1576 1575 1573 1570 1568 1567 1567 1566 1564 1562 1561 1561 1560 1560 1560 1560 1560 1560 1560 1560 1559 1559 1559 1559 1559 1559 1559
1568 1570 1572 1573 1574 1575 1576 1577 1577 1578 1579 1580 1581 1581 1579 1579 1578 1577 1575 1573 1571 1571 1570 1569 1567 1565 1565 1564 1563 1564 1563 1563 1563 1563 1562 1562 1562 1561 1561 1561 1561 1562 1562
1568 1570 1572 1574 1575 1576 1577 1577 1578 1579 1580 1581 1582 1582 1581 1581 1580 1579 1578 1576 1575 1574 1573 1572 1570 1569 1568 1568 1567 1568 1567 1568 1568 1567 1565 1564 1564 1563 1563 1564 1564 1564 1564
1567 1569 1571 1573 1575 1576 1577 1578 1580 1581 1582 1583 1583 1583 1583 1582 1581 1580 1579 1578 1577 1577 1576 1576 1574 1573 1572 1572 1572 1572 1572 1572 1571 1569 1568 1568 1567 1566 1566 1566 1567 1566 1566
1567 1569 1571 1573 1575 1576 1578 1579 1581 1582 1583 1583 1584 1584 1584 1584 1583 1582 1582 1580 1579 1579 1579 1579 1579 1577 1577 1577 1577 1577 1576 1576 1575 1573 1572 1571 1569 1569 1568 1568 1568 1569 1569
1566 1569 1572 1574 1575 1577 1578 1580 1582 1583 1584 1584 1585 1585 1585 1586 1585 1585 1584 1583 1582 1581 1581 1582 1582 1581 1581 1580 1581 1581 1581 1579 1579 1578 1575 1574 1573 1572 1571 1571 1571 1571 1571
1566 1568 1570 1573 1575 1577 1579 1580 1582 1583 1584 1585 1586 1586 1587 1587 1587 1587 1586 1586 1584 1584 1584 1584 1584 1584 1584 1584 1584 1583 1583 1582 1581 1579 1578 1577 1576 1575 1574 1574 1574 1573 1573
1566 1568 1571 1573 1574 1576 1578 1581 1582 1583 1585 1586 1586 1587 1587 1588 1589 1588 1588 1588 1587 1586 1586 1586 1586 1587 1586 1587 1586 1586 1586 1584 1582 1581 1581 1579 1578 1577 1576 1575 1575 1574 1574
1565 1567 1570 1572 1575 1576 1578 1580 1581 1583 1584 1586 1587 1587 1588 1588 1589 1589 1589 1589 1588 1588 1587 1587 1588 1588 1588 1589 1588 1588 1588 1587 1585 1583 1582 1582 1582 1579 1578 1576 1576 1575 1575
1565 1566 1569 1571 1573 1576 1577 1579 1581 1582 1583 1585 1586 1587 1588 1588 1588 1589 1589 1589 1589 1589 1589 1589 1589 1589 1589 1590 1590 1590 1590 1589 1587 1585 1584 1583 1582 1583 1581 1579 1579 1578 1577
1563 1566 1568 1571 1572 1575 1577 1579 1579 1581 1583 1584 1585 1586 1587 1588 1588 1589 1589 1590 1589 1589 1589 1590 1589 1590 1589 1591 1591 1591 1592 1591 1590 1588 1587 1585 1584 1583 1584 1582 1581 1581 1581
1563 1566 1569 1571 1573 1575 1576 1578 1578 1579 1581 1582 1583 1585 1586 1587 1588 1588 1589 1589 1589 1589 1589 1589 1590 1590 1591 1591 1592 1592 1593 1593 1592 1591 1589 1588 1586 1585 1585 1584 1584 1584 1583
1558 1562 1565 1568 1571 1573 1575 1576 1577 1578 1579 1580 1581 1583 1585 1586 1586 1587 1587 1588 1589 1588 1588 1589 1590 1590 1591 1592 1592 1593 1594 1595 1594 1593 1592 1590 1589 1588 1587 1586 1586 1587 1587
1550 1555 1560 1564 1568 1572 1574 1575 1577 1577 1578 1579 1579 1581 1583 1584 1585 1586 1586 1587 1587 1587 1587 1588 1589 1590 1591 1592 1593 1594 1596 1597 1596 1594 1594 1592 1591 1590 1590 1588 1588 1588 1588
1554 1563 1563 1561 1565 1569 1572 1574 1574 1575 1575 1576 1577 1578 1580 1582 1583 1584 1584 1585 1586 1586 1586 1587 1588 1589 1590 1591 1593 1594 1594 1596 1596 1595 1595 1594 1593 1592 1592 1591 1590 1590 1590
1552 1551 1556 1558 1560 1564 1568 1571 1571 1573 1573 1574 1575 1577 1579 1580 1581 1582 1582 1582 1583 1584 1585 1586 1587 1588 1589 1590 1592 1593 1593 1593 1595 1596 1596 1596 1595 1595 1594 1594 1592 1592 1592
1539 1544 1546 1546 1552 1559 1563 1566 1568 1569 1570 1572 1573 1574 1576 1577 1578 1579 1579 1579 1580 1582 1583 1585 1586 1587 1587 1589 1590 1591 1592 1592 1593 1594 1595 1596 1597 1596 1596 1596 1595 1594 1594
1533 1539 1540 1542 1547 1553 1558 1561 1563 1565 1566 1568 1570 1571 1573 1574 1575 1576 1577 1577 1578 1580 1581 1582 1583 1584 1585 1586 1587 1588 1589 1590 1592 1593 1594 1595 1597 1597 1597 1597 1597 1597 1596
Wind_Speed
18 18 15 13 11 10 11 10 9 8 8 7 7 6 7 8 10 11 12 11 10 9 8 7 8 9 8 9 9 7 5 3 5 6 8 6 4 10 10 8 8 10 11
21 19 16 14 12 11 11 9 7 7 7 7 7 6 8 9 11 12 11 10 9 8 8 8 9 9 9 8 8 9 8 5 5 6 8 9 7 7 8 11 11 11 15
22 20 17 13 12 10 9 7 6 4 5 6 7 7 9 11 12 11 11 11 10 9 10 10 10 10 10 8 8 8 6 7 7 8 9 7 1 2 3 7 11 11 15
21 20 17 14 12 9 8 7 5 5 5 6 7 9 10 11 12 12 13 12 11 12 12 10 10 11 10 9 11 9 9 9 11 11 9 6 1 2 5 1 2 2 7
21 20 18 14 11 10 10 9 7 5 6 6 10 11 11 11 11 12 13 11 12 12 13 11 8 10 12 11 12 12 11 11 13 11 8 4 2 3 4 6 2 1 4
21 20 17 13 11 10 9 8 6 6 7 8 10 11 10 10 11 12 12 12 13 12 12 13 9 9 13 13 13 15 12 14 15 14 12 11 8 7 9 8 9 7 6
20 19 17 13 10 10 9 7 6 6 9 13 11 9 9 9 11 11 14 14 11 14 10 14 16 14 15 14 15 16 15 14 15 15 14 12 9 10 10 11 12 11 11
18 17 15 13 10 9 8 7 6 9 13 13 10 9 8 9 10 14 15 15 11 12 12 13 15 16 15 15 15 16 17 15 16 16 16 13 13 12 13 14 13 12 10
17 16 15 12 10 9 8 7 9 13 13 11 9 9 9 11 12 14 16 19 13 14 16 16 16 16 15 16 17 18 18 17 16 16 13 12 12 11 12 12 13 12 10
18 16 14 12 11 9 8 8 12 14 12 10 9 9 9 10 11 13 15 19 14 13 14 18 17 17 17 19 19 18 18 19 19 16 14 14 12 11 9 9 9 9 8
18 16 14 12 11 9 9 10 14 13 10 9 9 9 8 8 9 12 13 15 16 14 14 18 19 21 21 22 21 20 20 19 18 17 18 15 14 13 11 10 11 12 11
20 17 15 13 12 11 9 10 13 11 9 8 8 8 7 7 11 13 14 13 10 12 15 18 20 22 24 22 21 21 19 19 18 18 18 17 16 14 14 13 13 12 12
19 18 16 15 13 12 10 11 12 10 8 7 6 6 8 8 10 12 14 17 14 12 14 16 19 23 24 24 24 22 19 18 17 18 18 16 16 15 15 14 14 14 15
21 18 16 15 15 13 11 12 11 9 8 5 5 4 7 8 7 9 11 14 12 12 13 14 17 20 22 24 25 21 20 18 16 15 16 16 16 16 16 15 16 16 15
20 19 18 17 16 14 12 12 11 8 7 6 5 3 4 5 7 8 9 12 14 11 11 10 13 16 20 21 21 21 20 20 18 15 14 14 15 16 16 15 14 11 9
19 19 18 17 17 15 14 12 10 8 7 7 6 3 2 3 4 7 8 9 12 9 9 9 10 12 17 17 18 20 20 22 23 18 15 14 10 9 8 7 6 7 6
17 17 19 17 17 16 15 14 12 9 8 9 7 5 3 1 1 5 5 6 9 9 6 7 9 10 12 15 17 19 21 25 24 22 16 14 14 14 15 15 13 14 13
18 16 18 18 18 17 16 15 14 13 10 10 9 6 4 2 1 3 4 4 6 6 5 5 7 9 10 12 13 16 18 22 23 23 21 18 14 13 15 17 18 17 16
16 15 16 17 19 18 17 15 16 15 12 12 11 9 7 5 3 2 2 1 4 5 3 3 7 6 8 10 10 12 15 19 20 22 23 20 17 15 14 15 16 18 17
18 15 16 16 16 17 18 17 17 17 16 15 15 13 10 7 6 4 4 3 2 2 4 2 6 7 7 8 9 9 10 14 16 20 22 21 19 17 15 14 15 15 19
22 22 19 18 17 17 18 19 19 18 16 15 17 14 13 10 7 6 5 5 4 1 2 1 4 6 7 7 7 6 6 10 11 15 17 20 18 18 15 15 14 14 14
23 23 23 20 19 19 20 19 18 15 14 13 13 15 15 12 9 7 6 5 6 6 2 1 2 4 7 9 6 5 4 3 6 9 11 15 17 16 15 16 16 14 13
21 16 21 22 20 20 21 21 20 18 16 14 15 14 13 13 12 10 8 6 7 8 7 5 3 3 6 10 8 3 2 2 5 4 6 9 14 14 14 15 15 15 15
23 15 18 24 22 23 24 23 22 21 18 14 14 13 13 14 14 12 10 9 9 8 9 8 6 5 5 8 10 9 5 1 3 2 1 4 8 11 12 12 13 15 15
30 20 23 21 23 24 26 25 23 21 20 18 15 15 16 16 15 15 13 14 11 10 10 11 9 8 6 8 9 9 12 8 7 3 1 4 4 7 9 10 10 13 14
30 24 17 25 20 23 26 26 25 23 20 20 19 17 18 18 18 17 16 14 14 13 13 14 12 12 10 10 11 11 13 13 7 8 2 6 5 4 6 7 8 10 13
Wind_Direction
166 155 157 158 146 140 135 124 111 96 83 63 46 44 54 55 64 63 61 59 56 49 39 28 13 4 357 348 352 356 3 256 262 247 197 163 182 206 194 214 188 196 200
160 156 156 155 150 141 144 135 116 91 71 55 42 47 69 76 74 66 56 48 42 35 21 9 4 2 4 15 14 14 13 358 330 306 162 197 219 239 226 206 223 218 201
160 155 155 154 145 147 148 147 129 97 74 49 52 60 82 77 67 57 48 40 34 25 23 17 25 21 20 28 38 48 40 23 36 125 149 153 258 312 184 243 272 232 207
159 155 152 148 146 151 153 152 141 112 75 65 68 82 74 68 60 49 39 36 31 29 25 12 15 25 36 49 57 58 51 54 66 105 138 141 31 281 291 287 179 256 217
159 155 153 148 144 146 145 143 134 105 68 77 98 92 76 60 53 46 39 30 26 24 19 19 30 43 45 60 67 69 69 76 77 91 132 143 63 76 55 82 86 347 243
158 157 155 149 136 134 135 132 124 103 93 98 101 93 81 69 57 41 27 19 26 25 33 40 55 56 59 73 68 74 71 77 84 88 96 100 100 82 83 86 89 91 90
158 159 159 153 140 133 131 124 116 104 111 115 104 87 71 60 49 39 31 24 29 28 44 48 67 67 70 71 81 75 74 75 82 85 85 93 94 89 87 94 87 94 95
159 158 160 155 150 145 139 129 118 119 121 119 108 88 66 55 42 49 35 21 22 32 59 64 62 69 72 77 81 80 80 82 84 87 85 84 85 92 87 87 96 100 101
161 160 159 157 158 153 146 132 127 129 127 121 102 80 64 57 51 46 36 30 50 58 78 65 63 69 77 79 80 79 82 84 82 84 80 80 80 92 96 92 89 88 94
168 167 166 162 162 157 146 137 137 138 134 120 97 81 69 72 56 41 37 36 52 72 73 60 66 70 82 81 78 79 84 82 78 74 75 78 80 87 96 93 86 84 87
175 176 177 172 166 161 156 154 151 147 139 122 100 88 93 61 47 41 39 42 54 70 72 58 67 74 79 81 80 80 82 78 74 72 73 76 81 83 87 87 86 86 82
181 180 181 179 174 170 169 164 161 154 148 128 107 92 104 58 44 60 47 34 59 63 74 67 71 77 78 80 80 76 74 75 74 70 70 72 77 80 80 82 82 82 83
180 184 182 180 180 180 175 172 171 169 159 144 121 94 98 73 60 54 51 51 76 78 80 75 79 82 82 81 79 76 72 73 70 69 67 69 75 79 81 81 83 83 84
186 185 184 183 184 184 182 180 181 181 180 170 142 116 94 75 69 46 49 50 61 86 88 82 88 89 87 83 79 72 67 68 69 65 68 71 75 78 81 83 85 85 85
194 193 189 186 186 190 190 187 191 198 192 186 178 142 103 77 70 50 53 53 65 87 91 92 96 97 91 85 82 75 68 65 68 71 67 71 74 77 80 83 80 73 71
202 204 201 196 191 195 197 198 200 207 207 194 193 188 140 98 70 57 59 61 63 74 94 107 106 108 96 90 80 73 69 64 58 65 74 69 77 71 61 57 53 69 59
211 212 211 207 203 201 203 207 213 216 209 202 201 208 218 161 78 55 64 71 65 64 82 120 126 114 106 96 85 74 67 63 59 60 67 71 63 59 55 61 66 66 76
219 220 217 218 212 207 205 210 212 214 212 209 213 222 234 230 177 82 84 82 60 57 82 132 145 133 119 105 90 81 70 67 59 56 60 63 70 69 54 64 65 69 70
222 221 219 222 217 213 212 210 217 219 223 217 221 228 242 243 224 175 145 113 75 58 81 154 166 153 136 118 99 83 78 69 62 58 58 62 64 66 68 64 80 72 68
227 224 222 224 219 216 218 215 222 225 231 229 234 236 242 245 238 230 212 217 195 58 4 191 171 159 150 134 114 95 85 76 63 60 58 58 60 65 71 67 66 64 74
229 229 222 221 217 216 214 215 221 228 234 242 236 239 238 241 230 221 205 221 228 208 22 142 174 179 174 158 138 123 85 78 66 60 57 60 59 62 67 70 63 67 64
227 224 224 222 221 222 220 220 228 232 238 249 242 238 232 232 217 213 216 214 232 244 229 232 214 205 207 186 189 151 146 73 85 70 59 59 63 62 66 71 68 63 66
249 244 236 224 227 228 229 228 228 233 236 245 240 238 235 223 223 214 225 230 235 242 239 236 219 215 234 210 204 219 168 176 137 98 75 62 64 68 67 70 72 68 64
205 232 242 237 236 234 233 234 235 238 239 244 243 238 232 229 222 221 232 229 222 229 235 232 217 212 205 210 224 234 263 232 158 143 133 89 69 73 74 74 75 74 69
219 208 216 217 223 234 235 237 237 238 241 241 241 239 235 233 229 232 235 234 233 227 231 232 232 230 220 221 237 254 250 249 293 282 287 173 112 80 84 81 79 80 76
228 213 234 223 215 226 232 235 238 237 236 240 237 237 235 236 236 233 234 238 241 242 237 233 234 233 240 245 248 263 262 253 243 249 212 168 158 144 94 98 88 86 86